Regional Weather Roundup
Issued by NWS

Home | Current Version | Previous Version | Text Only | Print | Product List | Glossary Off
Versions: 1 2 3 4 5 6 7 8 9 10 11 12 13 14 15 16 17 18 19 20 21 22 23 24 25 26 27 28 29 30 31 32 33 34 35 36 37 38 39 40 41 42 43 44 45 46 47 48 49 50

000
ASUS43 KDTX 132010
RWRMI
MICHIGAN HOURLY REGIONAL WEATHER ROUNDUP
NATIONAL WEATHER SERVICE DETROIT/PONTIAC MI
400 PM EDT SUN JUL 13 2014

NOTE: "FAIR" INDICATES FEW OR NO CLOUDS BELOW 12,000 FEET WITH NO
SIGNIFICANT WEATHER AND/OR OBSTRUCTION TO VISIBILITY.

MIZ047>049-052>055-059>063-066>070-074>076-081>083-132100-
SOUTHEAST LOWER MICHIGAN

CITY           SKY/WX    TMP DP  RH WIND       PRES   REMARKS
ADRIAN         MOSUNNY   82  64  54 NW9G20    29.90F
ALMA           MOSUNNY   78  58  49 W12       29.86R
ANN ARBOR      MOSUNNY   83  63  50 W15       29.87F
BAD AXE        MOSUNNY   78  61  55 W16       29.83R
DETROIT CITY   MOSUNNY   86  61  42 W12G21    29.85R
DETROIT        PTSUNNY   84  63  49 W15G23    29.86F
FLINT          MOSUNNY   81  61  50 W17       29.86R
GROSSE ILE     MOSUNNY   82  63  51 W7G17     29.85R
HILLSDALE      MOSUNNY   79  67  66 W7        29.92R
HOWELL         SUNNY     80  59  48 W12       29.87R

CITY           SKY/WX    TMP DP  RH WIND       PRES   REMARKS
JACKSON        MOSUNNY   80  63  55 NW9G17    29.89F
LAMBERTVILLE   MOSUNNY   84  63  48 W9G20     29.88R
LANSING        SUNNY     79  60  52 W12       29.89R
LAPEER         NOT AVBL
MASON          SUNNY     78  62  56 W12       29.89R
MONROE         MOSUNNY   84  63  48 W14       29.86R
MT. CLEMENS    PTSUNNY   85  62  47 W12       29.82R
PONTIAC        MOSUNNY   82  60  47 W17G25    29.86S
PORT HOPE        N/A     80  60  50 W10       29.79F
PORT HURON     PTSUNNY   82  63  51 W7        29.84R
TRI CITIES     MOSUNNY   80  61  52 W14       29.85F
YPSILANTI      PTSUNNY   86  63  45 W12G20    29.87F
$$
MIZ043>046-050>051-056>058-064>065-071>073-077>080-132100-
SOUTHWEST LOWER MICHIGAN

CITY           SKY/WX    TMP DP  RH WIND       PRES   REMARKS
BATTLE CREEK   SUNNY     81  61  50 W13       29.92R
BENTON HARBOR  SUNNY     75  61  61 W10       29.92F
BIG RAPIDS     MOSUNNY   76  62  61 NW10G23   29.86R
COLDWATER      MOSUNNY   80  67  64 W9        29.91R
HOLLAND        SUNNY     78  64  61 W12       29.91F
GRAND RAPIDS   MOSUNNY   78  65  63 SW9       29.89R
KALAMAZOO      SUNNY     80  61  52 NW10      29.91F
MARSHALL       MOSUNNY   80  61  52 W10G21    29.90R
MUSKEGON       MOSUNNY   75  63  66 SW14      29.89F
$$
MIZ016>042-132100-
NORTHERN LOWER MICHIGAN

CITY           SKY/WX    TMP DP  RH WIND       PRES   REMARKS
ALPENA         MOSUNNY   76  53  44 W14G21    29.80R
BEAVER ISLAND  SUNNY     70  52  52 NW7       29.84R
BELLAIRE       PTSUNNY   71  55  55 NW9       29.85R
CADILLAC       PTSUNNY   73  61  67 W15G21    29.86R
CHARLEVOIX     SUNNY     69  55  60 N5        29.88R
FRANKFORT      CLEAR     70  61  75 SW7       29.86R
GAYLORD        MOSUNNY   70  53  54 W13G21    29.85R
GRAYLING       MOSUNNY   73  55  53 W10G18    29.85R
HARBOR SPRINGS MOSUNNY   67  59  75 SW6       29.83R
HOUGHTON LAKE  PTSUNNY   75  57  53 W13G25    29.85R
MANISTEE       SUNNY     73  63  68 W9        29.86R
OSCODA         PTSUNNY   82  56  42 W14       29.79R
PELLSTON       PTSUNNY   68  51  54 W15       29.85R
TRAVERSE CITY  MOSUNNY   74  59  59 N12       29.83R
$$
MIZ007>008-015-132100-
EASTERN UPPER MICHIGAN

CITY           SKY/WX    TMP DP  RH WIND       PRES   REMARKS
KINROSS        SUNNY     66  48  52 NW16G23   29.81R
MACKINAC ISLAN SUNNY     67  47  48 W21       29.82R
NEWBERRY       MOSUNNY   67  46  46 NW12G26   29.83R
S. S. MARIE    SUNNY     64  46  52 NW15G24   29.82R
$$
MIZ004>006-011>014-085-132100-
CENTRAL UPPER MICHIGAN

CITY           SKY/WX    TMP DP  RH WIND       PRES   REMARKS
MANISTIQUE     MOSUNNY   71  50  46 W5        29.82R
ESCANABA       MOSUNNY   73  45  35 W12       29.82R
MENOMINEE      MOSUNNY   75  46  35 W8G17     29.83R
SAWYER-GWINN   MOSUNNY   70  43  37 NW16      29.83F
$$
MIZ001>003-009>011-084-132100-
WESTERN UPPER MICHIGAN

CITY           SKY/WX    TMP DP  RH WIND       PRES   REMARKS
IRON MOUNTAIN  PTSUNNY   73  43  33 NW15G23   29.84S
HOUGHTON       SUNNY     68  46  45 W21G33    29.81R
COPPER HARBOR    N/A     68  45  43 NW14G30   29.78S
IRONWOOD       MOSUNNY  N/A N/A N/A W16G22    29.83F
$$

ABBREVIATIONS USED IN REMARKS
   TC - TEMPERATURE IN CELSIUS
  WCI - WIND CHILL INDEX
   HX - HEAT INDEX
  VSB - VISIBILITY




USA.gov is the U.S. government's official web portal to all federal, state and local government web resources and services.